Regional Weather Roundup
Issued by NWS San Diego, CA

Home | Current Version | Previous Version | Text Only | Print | Product List | Glossary On
Versions: 1 2 3 4 5 6 7 8 9 10 11 12 13 14 15 16 17 18 19 20 21 22 23 24 25 26 27 28 29 30 31 32 33 34 35 36 37 38 39 40 41 42 43 44 45 46 47 48 49 50
000
ASUS46 KSGX 040311
RWRSGX
SAN DIEGO HOURLY WEATHER ROUNDUP
NATIONAL WEATHER SERVICE SAN DIEGO CA
700 PM PST TUE MAR 03 2015

NOTE: "FAIR" INDICATES FEW OR NO CLOUDS BELOW 12,000 FEET WITH NO
SIGNIFICANT WEATHER AND/OR OBSTRUCTIONS TO VISIBILITY.

CAZ042-043-060-061-PZZ750-775-040400-

GREATER SAN DIEGO AREA

CITY           SKY/WX    TMP DP  RH WIND       PRES   REMARKS
LINDBERGH FLD  PTCLDY    60  45  57 N5        29.93R
NATIONAL CITY    N/A     59  48  67 CALM      29.92R
CHULA VISTA      N/A     58  49  71 NW6       29.84R
IMPERIAL BEACH PTCLDY    59  47  64 NW6       29.92R
BROWN FIELD    CLEAR     55  45  68 W3        29.91R
MIRAMAR MCAS   PTCLDY    56  44  64 NW5       29.91R
MONTGOMERY FLD CLEAR     57  46  66 NW6       29.92R

$$

NORTH SAN DIEGO COUNTY

CITY           SKY/WX    TMP DP  RH WIND       PRES   REMARKS
CAMP PENDLETON CLEAR     57  43  59 SW5       29.90R
OCEANSIDE AP   CLEAR     56  46  69 W3        29.90R
OCEANSIDE HBR    N/A     60  50  70 NW12      29.93R
VISTA            N/A     55  47  74 SW2       29.90R
CARLSBAD       CLEAR     57  45  64 CALM      29.90R
DEL MAR          N/A     56  50  80 CALM      29.94R
LA JOLLA SCRIP   N/A     58  26  29 CALM      29.90R
FALLBROOK        N/A     54  48  82 SE5       29.90R
ESCONDIDO        N/A     56  45  66 CALM      29.94R
SAN MARCOS       N/A     56  46  69 CALM      29.90R
POWAY            N/A     53  46  77 CALM      29.94R

$$

EAST SAN DIEGO COUNTY

CITY           SKY/WX    TMP DP  RH WIND       PRES   REMARKS
RAMONA         PTCLDY    49  43  80 CALM      29.91R
SANTEE LAKES     N/A     56  47  73 CALM      29.93R
LA MESA          N/A     56  47  71 CALM      29.86R
JAMUL            N/A     52  44  75 CALM      29.93R
DESCANSO N       N/A     42  39  90 CALM      29.86R
MT. LAGUNA OBS   N/A     32  32 100 NW3       29.50R
CAMPO            N/A     45  42  89 CALM      29.87R

$$

ORANGE COUNTY AND THE LOS ANGELES BASIN

CITY           SKY/WX    TMP DP  RH WIND       PRES   REMARKS
JOHN WAYNE AP  CLEAR     62  46  55 CALM      29.91R
LAKE FOREST FR   N/A     53  41  64 CALM      29.83R
SANTA ANA        N/A     59  44  56 CALM      29.87R
HUNTINGTON BCH   N/A     57  50  76 W2        29.92R
LOS ALAMITOS   CLEAR     56  47  72 W5        29.91R
FULLERTON      CLEAR     59  43  55 W6        29.90R
LONG BEACH     CLEAR     59  48  67 W8        29.90R
L.A. AP        PTCLDY    57  49  74 W14       29.91R
L.A. DOWNTOWN  CLEAR     58  49  72 CALM      29.90R

$$

THE INLAND EMPIRE

CITY           SKY/WX    TMP DP  RH WIND       PRES   REMARKS
CORONA         CLEAR     56  42  59 CALM      29.91R
CHINO          PTCLDY    53  43  68 W8        29.91R
ONTARIO        PTCLDY    55  41  59 W10       29.89R
SAN BERNARDINO PTCLDY    54  39  58 CALM      29.90R
RIVERSIDE AP   CLEAR     56  41  57 W8        29.90R
RIV CYN CREST    N/A     57  48  73 W5          N/A
MORENO VALLEY    N/A     53  46  77 NW3       29.11R
MARCH ARB      CLEAR     51  42  70 NW10      29.89R
HORSETHIEF CYN   N/A     51  37  59 SW3       29.89R
PERRIS           N/A     54  44  69 NW6         N/A
MENIFEE          N/A     56  46  71 CALM      29.96R
HEMET EAST       N/A     53  37  55 CALM      29.92R
FRENCH VALLEY  FAIR      50  43  76 S6        29.90R
TEMECULA         N/A     54  46  75 S3        29.87R

$$

SAN BERNARDINO AND RIVERSIDE COUNTY MOUNTAINS

CITY           SKY/WX    TMP DP  RH WIND       PRES   REMARKS
BIG BEAR AP    PTCLDY    28  23  80 CALM      29.92R
PINE COVE        N/A     33  32  97 N3        30.02R

$$

SOUTHERN DESERT INCLUDING THE COACHELLA VALLEY

CITY           SKY/WX    TMP DP  RH WIND       PRES   REMARKS
PALM SPRINGS   PTCLDY    61  43  51 N7        29.88R
THOUSAND PALMS   N/A     61  42  49 E5        29.86R
PALM DESERT      N/A     62  43  50 CALM      29.25S
THERMAL        PTCLDY    56  45  66 SE5       29.86R
BLYTHE         CLEAR     59  46  62 CALM      29.87R
IMPERIAL AP    CLEAR     58  41  53 SW3       29.87R
EL CENTRO NAS  PTCLDY    60  38  43 CALM      29.87R
YUMA AZ        PTCLDY    60  42  51 W5        29.86R
MEXICALI       CLEAR     61  39  44 W3        29.87

$$

UPPER DESERT

CITY           SKY/WX    TMP DP  RH WIND       PRES   REMARKS
VICTORVILLE AP CLEAR     48  27  43 NW5       29.90R
HESPERIA         N/A     50  28  42 CALM      30.07R
APPLE VALLEY     N/A     52  23  31 CALM      29.96R
PALMDALE       CLEAR     47  35  63 W14       29.92R
LANCASTER      CLEAR     46  35  65 W12       29.93R
EDWARDS AFB    PTCLDY    50  34  54 W12       29.89R
DAGGETT        MOCLDY    58  25  28 SW3       29.89R
29 PALMS N     PTCLDY    53  41  63 SW5       29.95R

$$

REGIONAL REPORTS

CITY           SKY/WX    TMP DP  RH WIND       PRES   REMARKS
SANTA BARBARA  CLEAR     55  48  77 W5        29.90R
SANDBERG       PTCLDY    40  33  76 N18G26    29.93S WCI  31
MT. WILSON       N/A     32  32 100 S2          N/A
LAS VEGAS NV   MOCLDY    54  34  46 NE6       29.87R
PHOENIX AZ     PTCLDY    59  40  49 NW7       29.84R
TIJUANA        PTCLDY    54  45  71 W6        29.93R
ENSENADA NW      N/A     58  32  37 N8        29.88S

$$

OFFSHORE ISLANDS

CITY           SKY/WX    TMP DP  RH WIND       PRES   REMARKS
CATALINA ARPT  CLEAR     48  23  37 W10       29.92R
SAN NICOLAS IS CLEAR    N/A N/A N/A W13       29.92R

$$

MARINE AND OFFSHORE BUOY REPORTS

STATION/POSITION SKY/WX   TEMP    WIND        PRES    SWELL
                          AIR SEA DIR/SP/G            HT/PER/DIR
                          (F)     (DEG/KT/KT) (MB)    (FT/S/D)
TANNER BANKS               59 61  330/ 14/ 16 1013.5R   7/310/11
S CLEMENTE BASIN           60 63  300/ 12/ 16 1012.5R   3/240/17
SAN NICOLAS IS.               60                N/A     5/180/18
SO. S. ROSA ISLA           58 60  310/ 19/ 21 1012.6R   5/10
W. S. BARBARA CH           57 58  330/ 23/ 27 1012.7R   5/320/10
S. MONICA BASIN            60 62  280/ 10/ 12 1012.7R   2/350/17
S PEDRO CHANNEL               61                N/A     2/200/18
DANA POINT                    61                N/A     3/200/18
CMP PENDLETON NS              62                N/A     3/220/18
TORREY PINES OTR              62                N/A     3/190/18
LA JOLLA 1                 60 62  340/  9/ 11 1012.5R
MISSION BAY BUOY              62                N/A     3/190/18
SAN DIEGO BAY                 65              1012.9R
POINT LOMA SOUTH              63                N/A     3/190/18

$$



USA.gov is the U.S. government's official web portal to all federal, state and local government web resources and services.